• In Uzbekistan
  • List of Countries
  • For 7 days
  • Water Temperature
  • Satellite Maps
  • Weather Map
  • Weather Widgets
  • user-avatar
    Login

    Hourly Weather San Miguel de Tucumán

    Today, 23 September, Saturday

    Time Temperature Precipitation Wind Pressure Humidity
    00:00 +18°C° 0 mm 1 mps 724 mmHg 62%
    01:00 +18°C° 0 mm 1 mps 724 mmHg 63%
    02:00 +16°C° 0 mm 1 mps 724 mmHg 64%
    03:00 +16°C° 0 mm 1 mps 724 mmHg 65%
    04:00 +16°C° 0 mm 1 mps 724 mmHg 67%
    05:00 +15°C° 0 mm 1 mps 724 mmHg 68%
    06:00 +18°C° 0 mm 1 mps 724 mmHg 64%
    07:00 +19°C° 0 mm 1 mps 724 mmHg 59%
    08:00 +21°C° 0 mm 1 mps 725 mmHg 55%
    09:00 +21°C° 0 mm 2 mps 725 mmHg 50%
    10:00 +24°C° 0 mm 2 mps 725 mmHg 45%
    11:00 +26°C° 0 mm 2 mps 725 mmHg 40%
    12:00 +27°C° 0 mm 3 mps 724 mmHg 38%
    13:00 +28°C° 0 mm 3 mps 723 mmHg 35%
    14:00 +29°C° 0 mm 3 mps 722 mmHg 33%
    15:00 +29°C° 0 mm 3 mps 722 mmHg 34%
    16:00 +28°C° 0 mm 3 mps 721 mmHg 35%
    17:00 +28°C° 0 mm 3 mps 721 mmHg 35%
    18:00 +26°C° 0 mm 2 mps 721 mmHg 40%
    19:00 +24°C° 0 mm 2 mps 721 mmHg 44%
    20:00 +22°C° 0 mm 1 mps 721 mmHg 48%
    21:00 +22°C° 0 mm 1 mps 721 mmHg 50%
    22:00 +21°C° 0 mm 1 mps 721 mmHg 52%
    23:00 +21°C° 0 mm 1 mps 721 mmHg 54%

    Tomorrow, 24 September, Sunday

    Time Temperature Precipitation Wind Pressure Humidity
    00:00 +20°C° 0 mm 1 mps 721 mmHg 55%
    01:00 +20°C° 0 mm 1 mps 721 mmHg 57%
    02:00 +20°C° 0 mm 1 mps 720 mmHg 58%
    03:00 +19°C° 0 mm 1 mps 720 mmHg 60%
    04:00 +19°C° 0 mm 1 mps 719 mmHg 62%
    05:00 +19°C° 0 mm 1 mps 719 mmHg 63%
    06:00 +20°C° 0 mm 1 mps 719 mmHg 60%
    07:00 +21°C° 0 mm 2 mps 720 mmHg 56%
    08:00 +23°C° 0 mm 2 mps 720 mmHg 53%
    09:00 +26°C° 0 mm 2 mps 720 mmHg 47%
    10:00 +28°C° 0 mm 3 mps 720 mmHg 41%
    11:00 +30°C° 0 mm 3 mps 720 mmHg 35%
    12:00 +33°C° 0 mm 3 mps 719 mmHg 33%
    13:00 +34°C° 0 mm 3 mps 718 mmHg 31%
    14:00 +35°C° 0 mm 3 mps 718 mmHg 29%
    15:00 +34°C° 0 mm 3 mps 717 mmHg 31%
    16:00 +34°C° 0 mm 3 mps 717 mmHg 32%
    17:00 +33°C° 0 mm 3 mps 717 mmHg 34%
    18:00 +30°C° 0 mm 2 mps 718 mmHg 40%
    19:00 +28°C° 0 mm 1 mps 719 mmHg 46%
    20:00 +26°C° 0 mm 1 mps 719 mmHg 52%
    21:00 +25°C° 0 mm 1 mps 720 mmHg 53%
    22:00 +25°C° 0 mm 1 mps 720 mmHg 54%
    23:00 +25°C° 0 mm 1 mps 721 mmHg 55%

    Day after tomorrow, 25 September, Monday

    Time Temperature Precipitation Wind Pressure Humidity
    00:00 +24°C° 0 mm 1 mps 721 mmHg 56%
    01:00 +24°C° 0 mm 1 mps 720 mmHg 57%
    02:00 +24°C° 0 mm 1 mps 720 mmHg 58%
    03:00 +23°C° 0.1 mm 1 mps 720 mmHg 59%
    04:00 +23°C° 0.1 mm 1 mps 720 mmHg 60%
    05:00 +22°C° 0.1 mm 1 mps 720 mmHg 62%
    06:00 +23°C° 0.1 mm 1 mps 721 mmHg 58%
    07:00 +25°C° 0.1 mm 2 mps 722 mmHg 55%
    08:00 +26°C° 0.1 mm 2 mps 723 mmHg 52%
    09:00 +28°C° 0.3 mm 2 mps 723 mmHg 48%
    10:00 +29°C° 0.3 mm 2 mps 723 mmHg 44%
    11:00 +31°C° 0.3 mm 2 mps 723 mmHg 41%
    12:00 +32°C° 0 mm 2 mps 723 mmHg 39%
    13:00 +34°C° 0 mm 2 mps 722 mmHg 37%
    14:00 +35°C° 0 mm 2 mps 721 mmHg 35%
    15:00 +34°C° 0 mm 2 mps 721 mmHg 37%
    16:00 +34°C° 0 mm 2 mps 720 mmHg 39%
    17:00 +32°C° 0 mm 1 mps 720 mmHg 41%
    18:00 +30°C° 0.1 mm 1 mps 720 mmHg 46%
    19:00 +29°C° 0.1 mm 1 mps 720 mmHg 52%
    20:00 +27°C° 0.1 mm 1 mps 721 mmHg 57%
    21:00 +27°C° 0.1 mm 1 mps 721 mmHg 58%
    22:00 +27°C° 0.1 mm 1 mps 721 mmHg 59%
    23:00 +26°C° 0.1 mm 1 mps 721 mmHg 60%

    26 September, Tuesday

    Time Temperature Precipitation Wind Pressure Humidity
    00:00 +26°C° 0 mm 1 mps 721 mmHg 62%
    01:00 +26°C° 0 mm 1 mps 720 mmHg 63%
    02:00 +25°C° 0 mm 1 mps 720 mmHg 65%
    03:00 +25°C° 0 mm 1 mps 719 mmHg 67%
    04:00 +24°C° 0 mm 1 mps 719 mmHg 69%
    05:00 +24°C° 0 mm 1 mps 719 mmHg 71%
    06:00 +25°C° 0 mm 1 mps 719 mmHg 67%
    07:00 +26°C° 0 mm 1 mps 719 mmHg 63%
    08:00 +27°C° 0 mm 1 mps 720 mmHg 59%
    09:00 +29°C° 0 mm 1 mps 720 mmHg 52%
    10:00 +32°C° 0 mm 2 mps 719 mmHg 45%
    11:00 +35°C° 0 mm 2 mps 719 mmHg 38%
    12:00 +35°C° 0 mm 2 mps 718 mmHg 36%
    13:00 +36°C° 0 mm 2 mps 717 mmHg 34%
    14:00 +37°C° 0 mm 2 mps 716 mmHg 32%
    15:00 +36°C° 0 mm 2 mps 716 mmHg 34%
    16:00 +35°C° 0 mm 2 mps 716 mmHg 36%
    17:00 +34°C° 0 mm 1 mps 716 mmHg 39%
    18:00 +32°C° 0.5 mm 1 mps 716 mmHg 45%
    19:00 +30°C° 0.5 mm 2 mps 717 mmHg 51%
    20:00 +29°C° 0.5 mm 2 mps 718 mmHg 56%
    21:00 +28°C° 2.5 mm 2 mps 718 mmHg 61%
    22:00 +27°C° 2.5 mm 2 mps 719 mmHg 65%
    23:00 +26°C° 2.5 mm 2 mps 719 mmHg 70%

    27 September, Wednesday

    Time Temperature Precipitation Wind Pressure Humidity
    00:00 +25°C° 1.6 mm 2 mps 719 mmHg 72%
    01:00 +25°C° 1.6 mm 2 mps 720 mmHg 74%
    02:00 +24°C° 1.6 mm 2 mps 720 mmHg 76%
    03:00 +24°C° 0.5 mm 3 mps 720 mmHg 79%
    04:00 +22°C° 0.5 mm 3 mps 720 mmHg 83%
    05:00 +22°C° 0.5 mm 3 mps 720 mmHg 86%
    06:00 +22°C° 1.6 mm 3 mps 721 mmHg 86%
    07:00 +23°C° 1.6 mm 2 mps 721 mmHg 87%
    08:00 +23°C° 1.6 mm 2 mps 722 mmHg 87%
    09:00 +23°C° 2.4 mm 2 mps 722 mmHg 87%
    10:00 +23°C° 2.4 mm 2 mps 722 mmHg 88%
    11:00 +22°C° 2.4 mm 3 mps 722 mmHg 88%
    12:00 +21°C° 1.6 mm 3 mps 722 mmHg 89%
    13:00 +21°C° 1.6 mm 3 mps 721 mmHg 90%
    14:00 +21°C° 1.6 mm 3 mps 720 mmHg 90%
    15:00 +20°C° 0.7 mm 3 mps 720 mmHg 91%
    16:00 +20°C° 0.7 mm 3 mps 720 mmHg 92%
    17:00 +19°C° 0.7 mm 3 mps 720 mmHg 92%
    18:00 +19°C° 0.2 mm 3 mps 721 mmHg 92%
    19:00 +19°C° 0.2 mm 2 mps 721 mmHg 92%
    20:00 +18°C° 0.2 mm 2 mps 722 mmHg 93%
    21:00 +18°C° 0.1 mm 2 mps 722 mmHg 93%
    22:00 +19°C° 0.1 mm 1 mps 722 mmHg 93%
    23:00 +19°C° 0.1 mm 1 mps 722 mmHg 93%

    28 September, Thursday

    Time Temperature Precipitation Wind Pressure Humidity
    00:00 +19°C° 0.1 mm 1 mps 722 mmHg 93%
    01:00 +19°C° 0.1 mm 1 mps 721 mmHg 92%
    02:00 +19°C° 0.1 mm 1 mps 721 mmHg 92%
    03:00 +19°C° 0.1 mm 1 mps 721 mmHg 92%
    04:00 +18°C° 0.1 mm 1 mps 721 mmHg 92%
    05:00 +18°C° 0.1 mm 1 mps 721 mmHg 93%
    06:00 +19°C° 0.1 mm 1 mps 721 mmHg 91%
    07:00 +19°C° 0.1 mm 1 mps 722 mmHg 89%
    08:00 +19°C° 0.1 mm 1 mps 722 mmHg 86%
    09:00 +20°C° 0 mm 1 mps 722 mmHg 84%
    10:00 +21°C° 0 mm 1 mps 722 mmHg 81%
    11:00 +21°C° 0 mm 2 mps 722 mmHg 78%
    12:00 +23°C° 0 mm 2 mps 721 mmHg 75%
    13:00 +24°C° 0 mm 2 mps 720 mmHg 71%
    14:00 +25°C° 0 mm 2 mps 719 mmHg 67%
    15:00 +24°C° 0 mm 2 mps 719 mmHg 69%
    16:00 +24°C° 0 mm 2 mps 719 mmHg 70%
    17:00 +24°C° 0 mm 2 mps 719 mmHg 71%
    18:00 +23°C° 0.1 mm 1 mps 720 mmHg 76%
    19:00 +22°C° 0.1 mm 1 mps 720 mmHg 81%
    20:00 +22°C° 0.1 mm 1 mps 721 mmHg 85%
    21:00 +21°C° 0.1 mm 1 mps 721 mmHg 86%
    22:00 +21°C° 0.1 mm 1 mps 721 mmHg 86%
    23:00 +21°C° 0.1 mm 1 mps 722 mmHg 87%
    Show more